World > North America > United States > Mississippi

Hourly Woodland, MS Regional Weather

Feedback E-mail the Weather

Quick WX

Woodland, MS Weather Maps

°F °C°F °C
Woodland Weather Map
UTC Time: 7/3/2022, 15:18
Your Time:

Woodland, MS Regional Weather

Expires:202207031600;;613886
ASUS44 KJAN 031510
RWRMS 

MISSISSIPPI HOURLY WEATHER ROUNDUP
NATIONAL WEATHER SERVICE JACKSON MS
1000 AM CDT SUN JUL 03 2022

NOTE: "FAIR: INDICATES FEW OR NO CLOUDS BELOW 12,000 FEET WITH NO
SIGNIFICANT WEATHER AND/OR OBSTRUCTIONS TO VISIBILITY.


MSZ003>006-009-014>017-022>024-029>033-037>039-031600-
NORTHEAST MISSISSIPPI
  
CITY           SKY/WX    TMP DP  RH WIND       PRES   REMARKS
ABERDEEN       FAIR      84  77  79 CALM      30.11S HX  94           
COLUMBUS AFB   MOSUNNY   85  73  68 W3        30.07S HX  91           
CORINTH        CLOUDY    82  70  65 CALM      30.10S                  
GOLDN TRIANGLE PTSUNNY   81  75  82 SW6       30.11S                  
TUPELO         PTSUNNY   87  71  58 S6        30.09S HX  93           
$$


SKY/WX - Weather  TMP - Temperature  DP - Dew Point  RH - Humidity
WIND - Wind Direction/Speed PRES - Barometric Pressure VSB - Visibility
WCI - Wind Chill Index E13G22 Wind - East Wind 13 mph/Gusts of 22 mph

Trending Headlines

Woodland Radar Loop



Woodland Quick Facts


National Two Day Weather Forecast


E-mail the Woodland Weather Forecast

Voice your opinion or tell us about page issues...